• Processing (Info)

  • MPEC 2004-C16 : 2004 CB

    The following Minor Planet Electronic Circular may be linked-to from your own Web pages, but must not otherwise be redistributed electronically.

    A form allowing access to any MPEC is at the bottom of this page.


    Read MPEC 2004-C15 Read MPEC 2004-C17


    M.P.E.C. 2004-C16                                Issued 2004 Feb. 5, 17:00 UT
    
         The Minor Planet Electronic Circulars contain information on unusual
             minor planets and routine data on comets.  They are published
       on behalf of Commission 20 of the International Astronomical Union by the
              Minor Planet Center, Smithsonian Astrophysical Observatory,
                              Cambridge, MA 02138, U.S.A.
    
             Supported in part by the Steven and Michele Kirsch Foundation
                 Prepared using the Tamkin Foundation Computer Network
    
                                  MPC@CFA.HARVARD.EDU
              URL http://cfa-www.harvard.edu/iau/mpc.html  ISSN 1523-6714
    
                                        2004 CB
    
    Observations:
         K04C00B* C2004 02 03.40369 14 24 23.21 +43 34 21.8          18.1   EC016704
         K04C00B  C2004 02 03.41582 14 24 28.10 +43 34 22.8          18.2   EC016704
         K04C00B  C2004 02 03.42820 14 24 33.11 +43 34 23.6          17.9   EC016704
         K04C00B  C2004 02 03.44032 14 24 38.05 +43 34 24.3          17.8   EC016704
         K04C00B  C2004 02 03.45243 14 24 42.97 +43 34 25.0          17.8   EC016704
         K04C00B  C2004 02 04.97904 14 35 20.11 +43 33 12.8          17.4 R EC016143
         K04C00B  C2004 02 04.98369 14 35 22.05 +43 33 11.8          17.3 R EC016143
         K04C00B  C2004 02 04.98834 14 35 24.00 +43 33 11.9          17.3 R EC016143
         K04C00B 5C2004 02 05.52465 14 39 09.98 +43 32 09.7          18.0 R EC016673
         K04C00B 5C2004 02 05.52905 14 39 11.81 +43 32 09.0                 EC016673
         K04C00B 5C2004 02 05.53322 14 39 13.53 +43 32 08.1                 EC016673
         K04C00B 5C2004 02 05.54340 14 39 17.83 +43 32 06.7                 EC016673
    
    Observer details:
    143 Gnosca.  Observer S. Sposetti.  0.40-m f/4 reflector + CCD.
    673 Table Mountain Observatory, Wrightwood.  Observer J. Young.  0.6-m
        reflector + CCD.
    704 Lincoln Laboratory ETS, New Mexico.  Observers M. Blythe, F. Shelly,
        M. Bezpalko, R. Huber, L. Manguso, D. Torres, R. Kracke, M. McCleary,
        H. Stange, A. Milner.  Measurers J. Stuart, R. Sayer, J. Evans, J. Kommers.
        1.0-m f/2.15 reflector + CCD.
    
    Orbital elements:
    2004 CB
    Epoch 2004 Jan. 16.0 TT = JDT 2453020.5                 MPC
    M 341.14397              (2000.0)            P               Q
    n   0.24093794     Peri.  152.70126     -0.77672249     +0.56138762
    a   2.5577961      Node    64.35794     -0.62007513     -0.60202830
    e   0.6469287      Incl.   18.46702     -0.11049444     -0.56780795
    P   4.09           H   18.0           G   0.15
    From 12 observations 2004 Feb. 3-5.
    
    Ephemeris:
    2004 CB                  a,e,i = 2.56, 0.65, 18                  q = 0.9031
    Date    TT    R. A. (2000) Decl.     Delta      r     Elong.  Phase     V
    2004 02 05    14 35.46   +43 33.3    0.469    1.213   107.6    50.8    18.7
    2004 02 15    15 49.06   +41 44.7    0.416    1.130    99.0    59.7    18.5
    2004 02 25    17 03.10   +36 27.9    0.382    1.055    89.0    69.8    18.5
    2004 03 06    18 09.77   +27 55.5    0.368    0.990    79.0    79.6    18.6
    2004 03 16    19 06.98   +17 29.7    0.375    0.941    70.9    87.0    18.8
    2004 03 26    19 56.47   +07 00.7    0.401    0.911    66.0    90.3    19.0
    2004 04 05    20 40.58   -02 06.6    0.443    0.903    64.5    89.1    19.2
    2004 04 15    21 20.73   -09 15.3    0.497    0.919    65.8    84.7    19.3
    2004 04 25    21 57.16   -14 32.2    0.554    0.956    68.7    78.6    19.4
    2004 05 05    22 29.64   -18 25.1    0.609    1.011    72.7    72.2    19.5
    2004 05 15    22 57.97   -21 24.5    0.659    1.080    77.4    66.0    19.6
    2004 05 25    23 21.89   -23 57.3    0.701    1.158    82.9    60.2    19.7
    2004 06 04    23 41.22   -26 23.2    0.735    1.243    89.0    54.7    19.8
    2004 06 14    23 55.76   -28 55.1    0.763    1.331    95.9    49.4    19.9
    2004 06 24    00 05.11   -31 41.0    0.786    1.422   103.4    44.1    19.9
    2004 07 04    00 08.78   -34 40.9    0.807    1.513   111.6    38.7    20.0
    2004 07 14    00 06.29   -37 48.5    0.831    1.604   120.1    33.2    20.0
    2004 07 24    23 57.30   -40 49.3    0.863    1.694   128.5    28.0    20.1
    2004 08 03    23 42.31   -43 22.2    0.908    1.783   136.1    23.3    20.1
    2004 08 13    23 22.94   -45 07.2    0.968    1.870   141.5    19.7    20.3
    2004 08 23    23 01.95   -45 51.7    1.047    1.956   143.8    17.8    20.5
    2004 09 02    22 42.52   -45 35.9    1.146    2.040   142.3    17.6    20.8
    2004 09 12    22 26.88   -44 31.5    1.265    2.122   137.9    18.5    21.1
    2004 09 22    22 16.05   -42 53.5    1.402    2.202   131.7    19.9    21.4
    2004 10 02    22 09.96   -40 55.8    1.556    2.280   124.8    21.1    21.8
    
    Timothy B. Spahr             (C) Copyright 2004 MPC           M.P.E.C. 2004-C16
    

    Read MPEC 2004-C15 Read MPEC 2004-C17


    MPEC number:

    Enter an MPEC number in one of the following forms:

    • 1997-B01 (the full form)
    • J97B01 (the packed version of the full form)
    • B01 (the abbreviated form)